When you browse on this site, cookies collect data to enhance your experience and personalize the content and advertising you see.
Visit our Privacy Policy to learn more. By continuing to use the site, you agree to this use of cookies and data.
  • In Hungary
  • List of Countries
  • For 7 days
  • Water Temperature
  • Weather Map
  • News
  • Weather Widgets
  • user-avatar
    Login

    Hourly Weather Yali

    Today, 10 December, Tuesday

    Time Temperature Precipitation Wind Pressure Humidity
    00:00 +19°C° 0.3 mm 1 mps 658 mmHg 98%
    01:00 +19°C° 0 mm 1 mps 658 mmHg 98%
    02:00 +19°C° 0.2 mm 1 mps 657 mmHg 98%
    03:00 +19°C° 0.2 mm 1 mps 657 mmHg 98%
    04:00 +18°C° 0.2 mm 1 mps 657 mmHg 98%
    05:00 +19°C° 0.1 mm 1 mps 658 mmHg 98%
    06:00 +17°C° 0.1 mm 0 mps 658 mmHg 97%
    07:00 +20°C° 0 mm 1 mps 659 mmHg 97%
    08:00 +21°C° 0.2 mm 1 mps 659 mmHg 90%
    09:00 +23°C° 0.2 mm 1 mps 660 mmHg 83%
    10:00 +25°C° 0.2 mm 1 mps 660 mmHg 75%
    11:00 +25°C° 0.5 mm 1 mps 659 mmHg 76%
    12:00 +26°C° 0.5 mm 1 mps 659 mmHg 76%
    13:00 +26°C° 0.5 mm 1 mps 658 mmHg 76%
    14:00 +26°C° 0.3 mm 1 mps 658 mmHg 77%
    15:00 +26°C° 0.3 mm 1 mps 657 mmHg 78%
    16:00 +25°C° 0.3 mm 1 mps 657 mmHg 79%
    17:00 +24°C° 0.2 mm 1 mps 657 mmHg 85%
    18:00 +22°C° 0.2 mm 1 mps 657 mmHg 91%
    19:00 +19°C° 0.2 mm 0 mps 658 mmHg 98%
    20:00 +18°C° 0.5 mm 0 mps 658 mmHg 98%
    21:00 +20°C° 0.5 mm 1 mps 659 mmHg 98%
    22:00 +20°C° 0.5 mm 1 mps 659 mmHg 98%
    23:00 +20°C° 0.4 mm 1 mps 659 mmHg 98%

    Tomorrow, 11 December, Wednesday

    Time Temperature Precipitation Wind Pressure Humidity
    00:00 +19°C° 0.4 mm 1 mps 658 mmHg 98%
    01:00 +19°C° 0.4 mm 1 mps 658 mmHg 98%
    02:00 +19°C° 0.6 mm 1 mps 658 mmHg 98%
    03:00 +19°C° 0.6 mm 1 mps 658 mmHg 98%
    04:00 +18°C° 0.6 mm 1 mps 658 mmHg 98%
    05:00 +18°C° 0.2 mm 1 mps 658 mmHg 97%
    06:00 +19°C° 0.2 mm 1 mps 658 mmHg 97%
    07:00 +19°C° 0.2 mm 1 mps 659 mmHg 97%
    08:00 +21°C° 0.2 mm 1 mps 660 mmHg 91%
    09:00 +23°C° 0.2 mm 1 mps 660 mmHg 86%
    10:00 +24°C° 0.2 mm 1 mps 661 mmHg 80%
    11:00 +24°C° 1.2 mm 1 mps 660 mmHg 83%
    12:00 +24°C° 1.2 mm 1 mps 659 mmHg 87%
    13:00 +24°C° 1.2 mm 1 mps 659 mmHg 90%
    14:00 +24°C° 0.9 mm 1 mps 658 mmHg 89%
    15:00 +24°C° 0.9 mm 1 mps 658 mmHg 88%
    16:00 +24°C° 0.9 mm 1 mps 658 mmHg 87%
    17:00 +23°C° 0.9 mm 1 mps 658 mmHg 91%
    18:00 +21°C° 0.9 mm 1 mps 658 mmHg 94%
    19:00 +20°C° 0.9 mm 1 mps 658 mmHg 98%
    20:00 +20°C° 0.3 mm 1 mps 658 mmHg 97%
    21:00 +20°C° 0.3 mm 1 mps 659 mmHg 97%
    22:00 +20°C° 0.3 mm 1 mps 659 mmHg 97%
    23:00 +19°C° 0.1 mm 1 mps 659 mmHg 96%

    Day after tomorrow, 12 December, Thursday

    Time Temperature Precipitation Wind Pressure Humidity
    00:00 +19°C° 0.1 mm 1 mps 659 mmHg 96%
    01:00 +19°C° 0.1 mm 1 mps 658 mmHg 96%
    02:00 +19°C° 0 mm 1 mps 658 mmHg 96%
    03:00 +19°C° 0 mm 1 mps 658 mmHg 96%
    04:00 +18°C° 0 mm 1 mps 658 mmHg 96%
    05:00 +18°C° 0 mm 1 mps 658 mmHg 96%
    06:00 +18°C° 0 mm 1 mps 659 mmHg 96%
    07:00 +17°C° 0 mm 0 mps 659 mmHg 95%
    08:00 +19°C° 0.1 mm 0 mps 660 mmHg 85%
    09:00 +23°C° 0.1 mm 1 mps 660 mmHg 75%
    10:00 +26°C° 0.1 mm 1 mps 661 mmHg 65%
    11:00 +26°C° 0.1 mm 1 mps 660 mmHg 66%
    12:00 +26°C° 0.1 mm 1 mps 660 mmHg 67%
    13:00 +26°C° 0.1 mm 2 mps 659 mmHg 68%
    14:00 +26°C° 0.5 mm 1 mps 658 mmHg 72%
    15:00 +25°C° 0.5 mm 1 mps 658 mmHg 76%
    16:00 +25°C° 0.5 mm 1 mps 657 mmHg 80%
    17:00 +23°C° 0.1 mm 1 mps 657 mmHg 86%
    18:00 +21°C° 0.1 mm 1 mps 657 mmHg 92%
    19:00 +18°C° 0.1 mm 0 mps 657 mmHg 98%
    20:00 +19°C° 0.1 mm 1 mps 658 mmHg 98%
    21:00 +19°C° 0.1 mm 1 mps 658 mmHg 98%
    22:00 +19°C° 0.1 mm 1 mps 659 mmHg 98%
    23:00 +19°C° 0.1 mm 1 mps 659 mmHg 98%

    13 December, Friday

    Time Temperature Precipitation Wind Pressure Humidity
    00:00 +18°C° 0.1 mm 1 mps 658 mmHg 98%
    01:00 +18°C° 0.1 mm 1 mps 658 mmHg 98%
    02:00 +16°C° 0 mm 1 mps 658 mmHg 98%
    03:00 +16°C° 0 mm 1 mps 657 mmHg 98%
    04:00 +16°C° 0 mm 1 mps 657 mmHg 98%
    05:00 +16°C° 0 mm 1 mps 657 mmHg 96%
    06:00 +16°C° 0 mm 1 mps 658 mmHg 95%
    07:00 +16°C° 0 mm 1 mps 658 mmHg 94%
    08:00 +20°C° 0 mm 1 mps 659 mmHg 83%
    09:00 +23°C° 0 mm 1 mps 660 mmHg 72%
    10:00 +23°C° 0 mm 0 mps 661 mmHg 61%
    11:00 +26°C° 0 mm 1 mps 660 mmHg 59%
    12:00 +27°C° 0 mm 1 mps 660 mmHg 58%
    13:00 +27°C° 0 mm 2 mps 659 mmHg 57%
    14:00 +26°C° 0.2 mm 2 mps 658 mmHg 64%
    15:00 +25°C° 0.2 mm 1 mps 658 mmHg 72%
    16:00 +24°C° 0.2 mm 1 mps 657 mmHg 79%
    17:00 +23°C° 0.3 mm 1 mps 657 mmHg 85%
    18:00 +21°C° 0.3 mm 1 mps 657 mmHg 91%
    19:00 +17°C° 0.3 mm 0 mps 657 mmHg 98%
    20:00 +19°C° 0.1 mm 1 mps 658 mmHg 98%
    21:00 +19°C° 0.1 mm 1 mps 658 mmHg 98%
    22:00 +19°C° 0.1 mm 1 mps 659 mmHg 98%
    23:00 +19°C° 0 mm 1 mps 659 mmHg 98%

    14 December, Saturday

    Time Temperature Precipitation Wind Pressure Humidity
    00:00 +19°C° 0 mm 1 mps 658 mmHg 98%
    01:00 +19°C° 0 mm 1 mps 658 mmHg 98%
    02:00 +18°C° 0 mm 1 mps 658 mmHg 98%
    03:00 +16°C° 0 mm 0 mps 658 mmHg 98%
    04:00 +16°C° 0 mm 0 mps 658 mmHg 97%
    05:00 +16°C° 0 mm 0 mps 658 mmHg 97%
    06:00 +17°C° 0 mm 0 mps 659 mmHg 96%
    07:00 +17°C° 0 mm 0 mps 659 mmHg 95%
    08:00 +19°C° 0.1 mm 0 mps 660 mmHg 87%
    09:00 +21°C° 0.1 mm 0 mps 660 mmHg 79%
    10:00 +23°C° 0.1 mm 0 mps 661 mmHg 71%
    11:00 +25°C° 0.3 mm 1 mps 660 mmHg 71%
    12:00 +25°C° 0.3 mm 1 mps 660 mmHg 70%
    13:00 +25°C° 0.3 mm 1 mps 659 mmHg 70%
    14:00 +25°C° 0.3 mm 1 mps 658 mmHg 74%
    15:00 +25°C° 0.3 mm 1 mps 658 mmHg 77%
    16:00 +24°C° 0.3 mm 1 mps 657 mmHg 80%
    17:00 +21°C° 0.2 mm 0 mps 658 mmHg 86%
    18:00 +19°C° 0.2 mm 0 mps 658 mmHg 91%
    19:00 +18°C° 0.2 mm 0 mps 658 mmHg 96%
    20:00 +17°C° 0.3 mm 0 mps 658 mmHg 97%
    21:00 +17°C° 0.3 mm 0 mps 659 mmHg 97%
    22:00 +18°C° 0.3 mm 1 mps 659 mmHg 98%
    23:00 +18°C° 0.4 mm 1 mps 659 mmHg 98%

    15 December, Sunday

    Time Temperature Precipitation Wind Pressure Humidity
    00:00 +18°C° 0.4 mm 1 mps 659 mmHg 98%
    01:00 +18°C° 0.4 mm 1 mps 659 mmHg 98%
    02:00 +18°C° 0 mm 1 mps 658 mmHg 98%
    03:00 +16°C° 0 mm 1 mps 658 mmHg 98%
    04:00 +16°C° 0 mm 1 mps 658 mmHg 98%
    05:00 +16°C° 0 mm 1 mps 658 mmHg 97%
    06:00 +18°C° 0 mm 1 mps 659 mmHg 97%
    07:00 +18°C° 0 mm 1 mps 659 mmHg 96%
    08:00 +20°C° 0 mm 1 mps 660 mmHg 86%
    09:00 +23°C° 0 mm 1 mps 661 mmHg 75%
    10:00 +25°C° 0 mm 1 mps 661 mmHg 65%
    11:00 +25°C° 0.1 mm 1 mps 661 mmHg 65%
    12:00 +25°C° 0.1 mm 1 mps 660 mmHg 65%
    13:00 +26°C° 0.1 mm 1 mps 659 mmHg 65%
    14:00 +25°C° 0.4 mm 1 mps 659 mmHg 71%
    15:00 +25°C° 0.4 mm 1 mps 658 mmHg 77%
    16:00 +24°C° 0.4 mm 1 mps 658 mmHg 82%
    17:00 +23°C° 0.5 mm 1 mps 658 mmHg 87%
    18:00 +19°C° 0.5 mm 0 mps 658 mmHg 93%
    19:00 +18°C° 0.5 mm 0 mps 658 mmHg 98%
    20:00 +18°C° 0.4 mm 0 mps 659 mmHg 98%
    21:00 +20°C° 0.4 mm 1 mps 659 mmHg 99%
    22:00 +19°C° 0.4 mm 1 mps 660 mmHg 99%
    23:00 +19°C° 0.2 mm 1 mps 659 mmHg 99%
    Show more